#timestamp,LO_Frequency,Hit,StdDev 
1681714815.5,286047000.4,N
1681714835.3,286047002.5,N
1681714855.2,286047001.5,N
1681714875.0,286047000.6,N
1681714875.9,286047000.6,N
1681714895.8,286047002.1,N
1681714915.6,286047002.1,N
1681714935.4,286047000.7,N
1681714955.3,286047001.2,N
1681714975.1,286047000.2,N
1681714995.8,286046999.7,N
1681715015.7,286047001.6,N
1681715035.5,286047002.3,N
1681715055.4,286047000.3,N
1681715075.2,286047000.0,N
1681715095.0,286047000.1,N
1681715095.9,286047000.1,N
1681715115.8,286047000.7,N
1681715135.6,286047000.2,N
1681715155.4,286047000.8,N
1681715175.3,286047001.0,N
1681715195.1,286047001.2,N
1681715215.9,286046998.3,N
1681715235.7,286046998.1,N
1681715255.5,286046999.0,N
1681715275.4,286047001.1,N
1681715295.2,286047001.0,N
1681715315.0,286047000.6,N
1681715315.9,286047000.6,N
1681715335.8,286047002.4,N
1681715355.6,286047001.1,N
1681715375.5,286046998.8,N
1681715395.3,286047000.4,N
1681715415.1,286047000.4,N
1681715435.9,286047000.7,N
1681715455.7,286047000.6,N
1681715475.5,286047001.8,N
1681715495.4,286047002.4,N
1681715515.2,286047000.7,N
1681715535.0,286047000.8,N
1681715536.0,286047000.8,N
1681715555.8,286047002.2,N
1681715575.6,286046999.9,N
1681715595.5,286047001.2,N
1681715615.3,286047000.9,N
1681715635.1,286047001.6,N
1681715655.9,286047000.3,N
1681715675.7,286047001.0,N
1681715695.5,286046998.3,N
1681715715.4,286046998.8,N
1681715735.2,286046998.4,N
1681715755.1,286046998.7,N
1681715756.0,286046998.7,N
1681715775.8,286046998.1,N
1681715795.6,286047000.3,N
1681715815.5,286047001.0,N
1681715835.3,286046998.9,N
1681715855.1,286046998.3,N
1681715875.9,286046998.1,N
1681715895.7,286047001.2,N
1681715915.6,286047001.0,N
1681715935.4,286046998.1,N
1681715955.2,286047002.7,N
1681715975.1,286047000.4,N
1681715976.0,286047000.4,N
1681715995.8,286047000.7,N
1681716015.7,286047011.9,Y
1681716035.5,286047000.4,P
1681716055.3,286047002.7,P
1681716075.2,286046998.2,N
1681716095.9,286047000.3,N
1681716115.7,286047002.3,N
1681716135.6,286047002.1,N
1681716155.4,286047000.6,N
1681716175.2,286046999.8,N
1681716195.1,286046999.7,N
1681716196.0,286046999.7,N
1681716215.8,286046999.8,N
1681716235.7,286047000.8,N
1681716255.5,286047000.5,N
1681716275.3,286046999.7,N
1681716295.2,286047002.1,N
1681716315.0,286047002.1,N
1681716315.9,286047002.1,N
1681716335.8,286047004.3,Y
1681716355.6,286047002.5,P
1681716375.4,286047002.6,N
1681716395.3,286047001.0,N
1681716415.1,286047000.9,N
1681716435.8,286047001.0,N
1681716455.7,286046999.8,N
1681716475.5,286047000.1,N
1681716495.3,286046999.7,N
1681716515.2,286047002.4,N
1681716535.0,286047001.9,N
1681716535.9,286047001.9,N
1681716555.8,286046999.7,N
1681716575.6,286047002.8,N
1681716595.4,286047004.4,Y
1681716615.3,286047001.8,P
1681716635.1,286047000.3,N
1681716655.9,286046999.8,N
1681716675.7,286047001.4,N
1681716695.5,286047002.1,N
1681716715.4,286046999.8,N
1681716735.2,286046998.8,N
1681716755.0,286046998.1,N
1681716755.9,286046998.1,N
1681716775.8,286046999.1,N
1681716795.6,286046997.8,N
1681716815.5,286046997.9,N
1681716835.3,286046998.9,N
1681716855.1,286047002.8,N
1681716875.9,286047001.2,N
1681716895.7,286046998.1,N
1681716915.5,286046998.6,N
1681716935.4,286046999.0,N
1681716955.2,286046999.5,N
1681716975.1,286046998.3,N
1681716976.0,286046998.3,N
1681716995.8,286047000.4,N
1681717015.6,286046998.4,N
1681717035.5,286046996.6,N
1681717055.3,286046996.9,N
1681717075.2,286046987.6,Y
1681717095.9,286046987.6,P
1681717115.7,286046987.7,N
1681717135.6,286046987.8,N
1681717155.4,286046991.6,N
1681717175.2,286046989.6,N
1681717195.1,286046989.5,N
1681717196.0,286046989.5,N
1681717215.8,286046989.1,Y
1681717235.7,286046999.5,P
1681717255.5,286047001.2,N
1681717275.3,286046999.0,N
1681717295.2,286046998.5,N
1681717315.0,286046999.0,N
1681717315.9,286046999.0,N
1681717335.8,286046998.5,N
1681717355.6,286047000.7,N
1681717375.4,286046997.0,N
1681717395.3,286046999.0,N
1681717415.1,286047000.6,N
1681717435.8,286046999.6,N
1681717455.7,286046999.9,N
1681717475.5,286046998.8,N
1681717495.3,286046997.8,N
1681717515.2,286046996.6,N
1681717535.0,286046997.7,N
1681717535.9,286046997.7,N
1681717555.8,286046996.6,N
1681717575.6,286047000.5,N
1681717595.4,286046998.2,N
1681717615.3,286046998.6,N
1681717635.1,286046996.6,N
1681717655.8,286046999.8,N
1681717675.7,286047002.8,N
1681717695.5,286047000.1,N
1681717715.3,286047000.8,N
1681717735.2,286047000.0,N
1681717755.0,286046998.2,N
1681717755.9,286046998.2,N
1681717775.8,286047002.3,N
1681717795.6,286047002.0,N
1681717815.4,286047003.1,N
1681717835.3,286047003.1,N
1681717855.1,286047006.0,Y
1681717875.8,286047004.4,P
1681717895.7,286047003.9,N
1681717915.5,286047003.3,N
1681717935.4,286047004.1,N
1681717955.2,286047004.2,N
1681717975.0,286047003.8,N
1681717975.9,286047003.8,N
1681717995.8,286047003.5,N
1681718015.6,286047007.4,Y
1681718035.4,286047002.7,P
1681718055.3,286046999.7,N
1681718075.1,286047001.0,N
1681718095.9,286047000.8,N
1681718115.7,286047001.0,N
1681718135.5,286047000.2,N
1681718155.4,286047001.0,N
1681718175.2,286046998.1,N
1681718195.0,286046999.9,N
1681718195.9,286046999.9,N
1681718215.8,286046999.8,N
1681718235.6,286047004.3,Y
1681718255.4,286047000.7,P
1681718275.3,286047000.7,P
1681718295.1,286047000.3,P
1681718315.9,286046998.3,Y
1681718335.7,286046999.3,P
1681718355.5,286046999.6,N
1681718375.4,286046999.9,N
1681718395.2,286046998.7,N
